Starlink 31414

operational
NORAD ID: 59418 Int'l Des: 2024-064 Owner: SPXS Country: US Constellation: starlink
LEOCIRCULAR

关于 Starlink 31414

正在加载描述...

实时位置

正在加载3D地球...

即将过境

高度历史

Altitude vs Time

uPlot chart will show altitude changes over time

两行轨道根数

1 59418U 24064W 25305.58876716 .00000848 00000-0 40336-4 0 9996
2 59418 43.0016 59.6836 0001532 274.7558 85.3119 15.27575849 89635
Epoch: Nov 1, 2025 • Age: 25 hours

当前状态

高度 495.3 km
速度 7.62 km/s
星下点 -43.04°S, 54.03°E
发射日期 Apr 5, 2024
运行时间 1.5 years
类型 internet

技术详情

分类 Payload
质量 730.00 kg
干质量 700.00 kg
总质量 730.00 kg
长度 0.30 m
直径 4.10 m
跨度 29.00 m
形状 Box + pan
制造商 SPXS
平台类型 Starlink V2M
阶段状态 In Orbit
所有者/国家 SPXS/US

大型星座

Loading constellations...